Location: Clanezzo
(45.7500°N, 9.6000°E)
Time: 03:37:08
(UTC+00:00)

EO 1 Delta rocket - Pass Details

Date: 12 May 2021
Orbit: 698 x 1791 km, 95.4° (Epoch: 18 June)

Event Time Altitude Azimuth Distance (km) Brightness Sun altitude
Exits shadow 23:51:14 72° 181° (S) 870 4.0 -25.4°
Maximum altitude 23:51:48 87° 258° (WSW) 848 4.1 -25.4°
Drops below altitude 10° 23:57:52 10° 350° (N) 2,772 7.8 -25.2°
Sets 00:00:40 0° 351° (N) 3,887 8.8 -25.1°
